Regional Weather Roundup
Issued by NWS

Home | Current Version | Previous Version | Graphics & Text | Print | Product List | Glossary On
Versions: 1 2 3 4 5 6 7 8 9 10 11 12 13 14 15 16 17 18 19 20 21 22 23 24 25 26 27 28 29 30 31 32 33 34 35 36 37 38 39 40 41 42 43 44 45 46 47 48 49 50
000
ASUS43 KFSD 160810
RWRSD

WEATHER ROUNDUP FOR SOUTH DAKOTA
NATIONAL WEATHER SERVICE SIOUX FALLS SD
200 AM CST TUE JAN 16 2018

NOTE: "FAIR" INDICATES FEW OR NO CLOUDS BELOW 12,000 FEET WITH NO
SIGNIFICANT WEATHER AND/OR OBSTRUCTIONS TO VISIBILITY.


SDZ001>005-009-010-012>017-160900-
NORTHWEST AND NORTH CENTRAL SOUTH DAKOTA

CITY           SKY/WX    TMP DP  RH WIND       PRES   REMARKS
BUFFALO          N/A     -8 -16  67 CALM      30.53F
FAITH            N/A    -15 -18  86 NW8       30.70F WCI -32
MOBRIDGE       PTCLDY   -12 -19  71 S3        30.78R
$$

SDZ012>016-024>037-041>051-057-063-072>074-160900-
SOUTHWEST AND SOUTH CENTRAL SOUTH DAKOTA

CITY           SKY/WX    TMP DP  RH WIND       PRES   REMARKS
RAPID CTY ARPT CLEAR    -10 -14  82 CALM      30.65F
PIERRE         CLEAR     -7 -14  71 NW10      30.79F WCI -25
CUSTER         PTCLDY    -1 -28  26 W6        30.41F WCI -13
ELLSWORTH AFB  PTCLDY   -10 -15  79 CALM      30.64F
PHILIP         CLEAR    -13 -17  82 W7        30.78F WCI -29
PINE RIDGE     CLEAR    -19 -22  86 CALM      30.66F
SPEARFISH        N/A     -4 -15  59 S7        30.56F WCI -18
WINNER         FAIR      -5 -12  72 NW8       30.76F WCI -20
$$

SDZ004>011-016>023-039-040-160900-
NORTHEAST SOUTH DAKOTA

CITY           SKY/WX    TMP DP  RH WIND       PRES   REMARKS
ABERDEEN       CLOUDY    -9 -15  75 NW7       30.82R WCI -24
WATERTOWN      CLOUDY    -9 -13  83 N15       30.67S WCI -31
BROOKINGS      CLOUDY    -6 -10  83 NW13      30.67R WCI -25
SISSETON         N/A     -8 -13  78 NW22      30.77R WCI -33
$$

SDZ017-020-022-023-036>040-048>070-160900-
SOUTHEAST SOUTH DAKOTA

CITY           SKY/WX    TMP DP  RH WIND       PRES   REMARKS
SIOUX FALLS    CLOUDY    -3  -8  79 N15       30.69R WCI -23
HURON          CLEAR     -9 -14  78 NW14      30.80S WCI -30
CHAMBERLAIN    CLEAR     -6 -12  74 W8        30.79R WCI -21
MITCHELL       CLOUDY    -4 -11  72 NW15G25   30.79S WCI -25
YANKTON        CLOUDY    -3  -9  75 NW16      30.74S WCI -24
$$

ABBREVIATIONS USED IN REMARKS
   TC - TEMPERATURE IN CELSIUS
  WCI - WIND CHILL INDEX
   HX - HEAT INDEX
  VSB - VISIBILITY





USA.gov is the U.S. government's official web portal to all federal, state and local government web resources and services.